GW3577 Weather Reports


Display with metric or nautical units.
time (UTC)temp
F
wind
direction
speed
MPH
gust
MPH
rain 1hr
in
rain 24hr
in
rain mn
in
humidity
%
barometer
mb
20260502160832 60 104 5.0 8.0 0.00 0.00 0.00 38 1014.3
20260502160330 60 148 0.0 2.0 0.00 0.00 0.00 38 1014.3
20260502152305 60 146 3.0 4.0 0.00 0.00 0.00 35 1014.7
20260502151802 60 61 2.0 4.0 0.00 0.00 0.00 35 1014.7
20260502151259 61 60 4.0 6.0 0.00 0.00 0.00 38 1014.7
20260502150757 60 159 2.0 4.0 0.00 0.00 0.00 36 1014.7
20260502150253 60 343 0.0 3.0 0.00 0.00 0.00 35 1014.7
20260502130642 55 139 0.0 1.0 0.00 0.00 0.00 41 1015.0
20260502130139 54 139 0.0 0.0 0.00 0.00 0.00 44 1015.4
20260502123625 53 139 0.0 2.0 0.00 0.00 0.00 48 1014.7
20260502123121 53 139 0.0 0.0 0.00 0.00 0.00 49 1014.7
20260502122618 53 139 0.0 0.0 0.00 0.00 0.00 47 1014.7
20260502122115 53 139 2.0 2.0 0.00 0.00 0.00 50 1014.7
20260502121613 53 77 0.0 0.0 0.00 0.00 0.00 49 1014.3
20260502121110 53 77 0.0 0.0 0.00 0.00 0.00 52 1014.3
20260502120606 52 77 0.0 0.0 0.00 0.00 0.00 49 1014.3
20260502115601 53 77 0.0 0.0 0.00 0.00 0.00 52 1014.3
20260502115102 53 76 0.0 0.0 0.00 0.00 0.00 52 1014.3
20260502114558 53 76 0.0 2.0 0.00 0.00 0.00 47 1014.3
20260502114055 52 76 0.0 0.0 0.00 0.00 0.00 48 1014.3
20260502113553 52 96 3.0 5.0 0.00 0.00 0.00 53 1014.3
20260502113051 51 292 0.0 0.0 0.00 0.00 0.00 55 1014.3
20260502112549 51 292 0.0 0.0 0.00 0.00 0.00 60 1014.0
20260502112046 50 292 0.0 0.0 0.00 0.00 0.00 61 1014.3
20260502111543 50 292 0.0 0.0 0.00 0.00 0.00 55 1014.0
20260502111041 50 292 0.0 0.0 0.00 0.00 0.00 54 1014.0
20260502110539 49 261 2.0 4.0 0.00 0.00 0.00 62 1014.3
20260502110036 49 312 0.0 0.0 0.00 0.00 0.00 67 1014.0
20260502105533 49 312 1.0 4.0 0.00 0.00 0.00 65 1014.0
20260502105030 49 312 0.0 3.0 0.00 0.00 0.00 64 1014.3
20260502104527 50 312 4.0 7.0 0.00 0.00 0.00 54 1014.3
20260502104025 50 301 2.0 5.0 0.00 0.00 0.00 56 1014.3
20260502103522 50 290 0.0 0.0 0.00 0.00 0.00 57 1014.3
20260502103020 51 290 3.0 6.0 0.00 0.00 0.00 50 1014.3
20260502102516 50 247 0.0 0.0 0.00 0.00 0.00 54 1014.3
20260502102013 50 247 0.0 3.0 0.00 0.00 0.00 56 1014.3
20260502101511 51 247 0.0 2.0 0.00 0.00 0.00 52 1014.3
20260502101010 52 247 2.0 4.0 0.00 0.00 0.00 48 1014.3
20260502100508 52 7 0.0 0.0 0.00 0.00 0.00 47 1014.0
20260502091442 51 309 1.0 4.0 0.00 0.00 0.00 57 1014.0
20260502090939 51 334 3.0 6.0 0.00 0.00 0.00 59 1014.0
20260502090436 51 324 4.0 5.0 0.00 0.00 0.00 59 1014.0
20260502071331 53 324 5.0 8.0 0.00 0.00 0.00 58 1013.3
20260502070829 53 306 6.0 8.0 0.00 0.00 0.00 59 1013.3
20260502070326 54 307 5.0 7.0 0.00 0.00 0.00 57 1013.3
20260502065825 54 311 6.0 9.0 0.00 0.00 0.00 57 1013.3
20260502065323 54 292 7.0 9.0 0.00 0.00 0.00 58 1013.3
20260502064820 54 320 5.0 10.0 0.00 0.00 0.00 58 1013.3
20260502064318 54 329 4.0 5.0 0.00 0.00 0.00 61 1013.3
20260502063815 54 6 0.0 0.0 0.00 0.00 0.00 60 1013.3
20260502063313 54 225 0.0 0.0 0.00 0.00 0.00 59 1013.7
20260502062810 54 225 0.0 2.0 0.00 0.00 0.00 60 1013.3
20260502062307 54 252 2.0 4.0 0.00 0.00 0.00 60 1013.3
20260502061806 55 295 0.0 3.0 0.00 0.00 0.00 59 1013.3
20260502061304 56 338 3.0 5.0 0.00 0.00 0.00 55 1013.7
20260502060759 55 18 3.0 6.0 0.00 0.00 0.00 56 1013.7
20260502060254 54 9 4.0 7.0 0.00 0.00 0.00 62 1013.7
20260502055753 55 336 1.0 4.0 0.00 0.00 0.00 63 1013.7
20260502055251 55 354 4.0 7.0 0.00 0.00 0.00 60 1013.7
20260502054750 56 349 3.0 4.0 0.00 0.00 0.00 59 1013.7
20260502054247 56 313 6.0 7.0 0.00 0.00 0.00 57 1013.7
20260502053744 56 355 4.0 7.0 0.00 0.00 0.00 58 1013.7
20260502053241 55 5 4.0 5.0 0.00 0.00 0.00 61 1013.7
20260502052739 54 24 2.0 5.0 0.00 0.00 0.00 70 1013.7
20260502052237 53 336 3.0 5.0 0.00 0.00 0.00 70 1013.7
20260502051735 52 29 1.0 4.0 0.00 0.00 0.00 81 1013.7
20260502051233 52 56 0.0 0.0 0.00 0.00 0.00 80 1013.7
20260502050729 52 53 2.0 5.0 0.00 0.00 0.00 82 1013.7
20260502050225 52 68 1.0 4.0 0.00 0.00 0.00 82 1013.7
20260502045723 51 4 3.0 6.0 0.00 0.00 0.00 87 1013.3
20260502045219 51 302 0.0 0.0 0.00 0.00 0.00 88 1013.7
20260502044716 50 302 4.0 7.0 0.00 0.00 0.00 89 1013.3
20260502044212 50 302 0.0 0.0 0.00 0.00 0.00 89 1013.7
20260502043710 50 316 4.0 6.0 0.00 0.00 0.00 90 1013.7
20260502043208 50 327 0.0 0.0 0.00 0.00 0.00 90 1013.7
20260502042707 51 327 0.0 0.0 0.00 0.00 0.00 90 1013.7
20260502042204 51 327 0.0 0.0 0.00 0.00 0.00 90 1013.7
20260502041702 51 327 0.0 0.0 0.00 0.00 0.00 89 1013.3
20260502041159 51 327 0.0 0.0 0.00 0.00 0.00 86 1013.3
20260502040655 52 327 0.0 0.0 0.00 0.00 0.00 83 1013.3
20260502040153 52 327 0.0 0.0 0.00 0.00 0.00 83 1013.7
20260502035649 53 327 0.0 0.0 0.00 0.00 0.00 82 1013.3
20260502035146 53 327 0.0 0.0 0.00 0.00 0.00 83 1013.7
20260502034643 53 327 0.0 2.0 0.00 0.00 0.00 85 1013.7
20260502034142 53 327 1.0 4.0 0.00 0.00 0.00 85 1013.7
20260502033639 53 327 0.0 0.0 0.00 0.00 0.00 85 1013.7
20260502033137 53 327 0.0 0.0 0.00 0.00 0.00 83 1013.7
20260502032633 53 327 3.0 5.0 0.00 0.00 0.00 84 1013.7
20260502032129 53 327 1.0 3.0 0.00 0.00 0.00 86 1013.3
20260502031627 53 327 0.0 0.0 0.00 0.00 0.00 84 1013.3
20260502031124 53 327 0.0 0.0 0.00 0.00 0.00 83 1013.3
20260502030623 52 327 0.0 3.0 0.00 0.00 0.00 84 1013.3
20260502030121 52 327 4.0 4.0 0.00 0.00 0.00 87 1013.3
20260502025618 52 327 0.0 0.0 0.00 0.00 0.00 86 1013.3
20260502025116 52 327 0.0 0.0 0.00 0.00 0.00 86 1013.0
20260502024614 52 327 0.0 0.0 0.00 0.00 0.00 85 1013.3
20260502024111 52 327 0.0 0.0 0.00 0.00 0.00 85 1013.3
20260502023609 52 327 0.0 0.0 0.00 0.00 0.00 85 1013.0
20260502023106 52 327 0.0 0.0 0.00 0.00 0.00 84 1013.0
20260502022603 52 327 0.0 0.0 0.00 0.00 0.00 84 1012.6
20260502022100 51 327 0.0 0.0 0.00 0.00 0.00 82 1012.6
20260502021557 51 327 0.0 0.0 0.00 0.00 0.00 84 1012.6
20260502021054 51 327 0.0 0.0 0.00 0.00 0.00 84 1012.6
20260502020552 51 327 0.0 2.0 0.00 0.00 0.00 82 1012.6
20260502020049 52 327 0.0 0.0 0.00 0.00 0.00 82 1012.6
20260502015546 52 327 0.0 0.0 0.00 0.00 0.00 80 1012.6
20260502015042 52 327 0.0 0.0 0.00 0.00 0.00 79 1012.6
20260502014539 52 327 0.0 0.0 0.00 0.00 0.00 81 1012.6
20260502014037 51 327 0.0 0.0 0.00 0.00 0.00 83 1012.6
20260502013532 52 327 0.0 0.0 0.00 0.00 0.00 82 1012.6
20260502013029 52 327 0.0 0.0 0.00 0.00 0.00 82 1012.6
20260502012526 52 327 0.0 0.0 0.00 0.00 0.00 80 1012.3
20260502012024 53 327 0.0 3.0 0.00 0.00 0.00 79 1012.3
20260502011520 53 327 0.0 4.0 0.00 0.00 0.00 79 1012.3
20260502011016 53 302 2.0 3.0 0.00 0.00 0.00 79 1012.3
20260502010514 53 302 0.0 0.0 0.00 0.00 0.00 79 1012.3
20260502010010 53 302 0.0 0.0 0.00 0.00 0.00 78 1012.3
20260502005508 53 302 0.0 0.0 0.00 0.00 0.00 78 1012.0
20260502005006 54 302 0.0 0.0 0.00 0.00 0.00 76 1012.0
20260502004501 54 302 0.0 1.0 0.00 0.00 0.00 76 1012.0
20260502003958 54 302 0.0 0.0 0.00 0.00 0.00 74 1012.0
20260502003455 55 302 0.0 2.0 0.00 0.00 0.00 73 1012.0
20260502002951 55 302 0.0 3.0 0.00 0.00 0.00 73 1011.6
20260502002449 55 231 0.0 0.0 0.00 0.00 0.00 72 1011.6
20260502001947 56 231 0.0 0.0 0.00 0.00 0.00 71 1011.6
20260502001444 57 231 0.0 0.0 0.00 0.00 0.00 69 1011.3
20260502000941 57 231 0.0 0.0 0.00 0.00 0.00 68 1011.3
20260502000440 58 231 0.0 0.0 0.00 0.00 0.00 66 1011.3
20260501235936 59 231 0.0 0.0 0.00 0.00 0.00 63 1011.3
20260501235431 60 231 0.0 0.0 0.00 0.00 0.00 61 1011.3
20260501234926 61 231 0.0 0.0 0.00 0.00 0.00 53 1011.3
20260501234423 62 231 0.0 0.0 0.00 0.00 0.00 51 1011.3
20260501233922 63 231 0.0 0.0 0.00 0.00 0.00 48 1011.3
20260501233420 63 231 0.0 0.0 0.00 0.00 0.00 48 1011.3
20260501232915 64 231 0.0 0.0 0.00 0.00 0.00 46 1011.3
20260501232413 64 231 1.0 2.0 0.00 0.00 0.00 45 1011.3
20260501231909 64 231 1.0 4.0 0.00 0.00 0.00 45 1011.3
20260501231408 64 180 4.0 8.0 0.00 0.00 0.00 45 1011.3
20260501230906 65 172 3.0 4.0 0.00 0.00 0.00 44 1010.9
20260501230404 65 201 4.0 6.0 0.00 0.00 0.00 44 1011.3
20260501225901 66 234 1.0 2.0 0.00 0.00 0.00 43 1010.9
20260501225359 66 183 4.0 6.0 0.00 0.00 0.00 42 1010.9
20260501224854 66 219 4.0 7.0 0.00 0.00 0.00 41 1010.9
20260501224352 66 176 5.0 9.0 0.00 0.00 0.00 41 1010.9
20260501223848 66 191 4.0 7.0 0.00 0.00 0.00 42 1010.9
20260501223344 66 224 5.0 9.0 0.00 0.00 0.00 41 1010.9
20260501222840 66 196 3.0 5.0 0.00 0.00 0.00 40 1010.9
20260501222338 67 180 5.0 8.0 0.00 0.00 0.00 38 1010.9
20260501221834 67 193 4.0 5.0 0.00 0.00 0.00 39 1010.9
20260501221332 67 180 2.0 5.0 0.00 0.00 0.00 40 1010.9
20260501220830 67 193 3.0 6.0 0.00 0.00 0.00 39 1010.9
20260501220327 67 173 3.0 7.0 0.00 0.00 0.00 38 1010.9
20260501215823 67 228 4.0 6.0 0.00 0.00 0.00 38 1010.9
20260501215319 67 194 3.0 6.0 0.00 0.00 0.00 38 1011.3
20260501214815 67 179 2.0 5.0 0.00 0.00 0.00 38 1011.3
20260501214310 68 188 4.0 7.0 0.00 0.00 0.00 38 1011.3
20260501213807 68 155 5.0 8.0 0.00 0.00 0.00 38 1011.3
20260501213303 67 153 2.0 5.0 0.00 0.00 0.00 38 1011.3
20260501212759 67 244 6.0 10.0 0.00 0.00 0.00 37 1011.3
20260501212255 68 173 4.0 6.0 0.00 0.00 0.00 37 1011.3
20260501211753 68 213 5.0 8.0 0.00 0.00 0.00 37 1011.3
20260501211249 68 238 7.0 10.0 0.00 0.00 0.00 37 1011.3
20260501210747 68 178 6.0 10.0 0.00 0.00 0.00 37 1011.6
20260501210243 68 175 4.0 6.0 0.00 0.00 0.00 38 1011.6
20260501205740 68 183 4.0 9.0 0.00 0.00 0.00 38 1011.6
20260501205237 67 165 4.0 6.0 0.00 0.00 0.00 38 1011.6
20260501204734 67 182 5.0 8.0 0.00 0.00 0.00 37 1011.6
20260501204231 68 170 5.0 9.0 0.00 0.00 0.00 37 1011.6
20260501203726 68 179 5.0 8.0 0.00 0.00 0.00 37 1011.6
20260501203224 67 202 4.0 6.0 0.00 0.00 0.00 37 1012.0
20260501202721 68 185 7.0 9.0 0.00 0.00 0.00 37 1012.0
20260501202218 68 188 4.0 6.0 0.00 0.00 0.00 37 1012.0
20260501201714 68 202 4.0 6.0 0.00 0.00 0.00 38 1012.0
20260501201211 68 191 5.0 9.0 0.00 0.00 0.00 36 1012.0
20260501200708 68 199 3.0 5.0 0.00 0.00 0.00 37 1012.0
20260501200206 68 236 7.0 12.0 0.00 0.00 0.00 37 1012.0
20260501195703 67 213 5.0 10.0 0.00 0.00 0.00 36 1012.3
20260501195159 67 182 5.0 8.0 0.00 0.00 0.00 35 1012.0
20260501194654 67 183 5.0 8.0 0.00 0.00 0.00 36 1012.3
20260501194149 67 155 2.0 6.0 0.00 0.00 0.00 37 1012.3
20260501193647 67 172 7.0 10.0 0.00 0.00 0.00 38 1012.6
20260501193146 67 198 6.0 10.0 0.00 0.00 0.00 36 1012.3
20260501192643 67 177 6.0 9.0 0.00 0.00 0.00 37 1012.6
20260501192140 67 199 4.0 8.0 0.00 0.00 0.00 36 1012.6
20260501191637 66 206 4.0 6.0 0.00 0.00 0.00 36 1012.6
20260501191134 67 190 7.0 11.0 0.00 0.00 0.00 35 1012.6
20260501190631 68 226 5.0 9.0 0.00 0.00 0.00 37 1012.6
20260501190126 67 224 4.0 10.0 0.00 0.00 0.00 36 1012.6
20260501185622 66 198 4.0 6.0 0.00 0.00 0.00 37 1013.0
20260501185118 67 225 4.0 6.0 0.00 0.00 0.00 36 1013.0
20260501184614 66 228 5.0 10.0 0.00 0.00 0.00 36 1013.3
20260501184109 66 182 5.0 8.0 0.00 0.00 0.00 37 1013.3
20260501183606 67 248 9.0 12.0 0.00 0.00 0.00 38 1013.3
20260501183102 67 164 3.0 5.0 0.00 0.00 0.00 38 1013.7
20260501182559 66 170 4.0 7.0 0.00 0.00 0.00 36 1013.7
20260501182056 66 220 6.0 9.0 0.00 0.00 0.00 38 1013.7
20260501181553 66 221 5.0 9.0 0.00 0.00 0.00 37 1013.7
20260501181050 66 191 3.0 5.0 0.00 0.00 0.00 39 1013.7
20260501180548 66 198 6.0 11.0 0.00 0.00 0.00 39 1013.7
20260501180044 65 210 5.0 6.0 0.00 0.00 0.00 38 1013.7
20260501175541 65 180 4.0 7.0 0.00 0.00 0.00 39 1014.0
20260501175037 66 210 4.0 11.0 0.00 0.00 0.00 39 1014.0
20260501174535 66 212 5.0 9.0 0.00 0.00 0.00 38 1014.0
20260501174033 65 252 1.0 4.0 0.00 0.00 0.00 40 1014.0
20260501173529 64 172 3.0 6.0 0.00 0.00 0.00 38 1014.3
20260501173026 64 206 6.0 11.0 0.00 0.00 0.00 38 1014.0
20260501172521 65 148 3.0 6.0 0.00 0.00 0.00 41 1014.3
20260501172017 65 174 4.0 6.0 0.00 0.00 0.00 42 1014.3
20260501171514 64 226 4.0 6.0 0.00 0.00 0.00 39 1014.3
20260501171010 64 187 4.0 7.0 0.00 0.00 0.00 39 1014.3
20260501170507 64 193 5.0 9.0 0.00 0.00 0.00 41 1014.3
20260501170005 63 213 4.0 7.0 0.00 0.00 0.00 43 1014.7
20260501165502 63 230 9.0 13.0 0.00 0.00 0.00 44 1014.3
20260501165000 63 230 6.0 11.0 0.00 0.00 0.00 43 1014.7
20260501164457 63 182 4.0 8.0 0.00 0.00 0.00 43 1015.0
20260501163954 63 139 7.0 11.0 0.00 0.00 0.00 43 1015.0
20260501163450 63 185 4.0 5.0 0.00 0.00 0.00 42 1015.0
20260501162947 64 190 3.0 6.0 0.00 0.00 0.00 42 1015.4
20260501162443 64 235 6.0 9.0 0.00 0.00 0.00 41 1015.4
20260501161940 64 292 6.0 8.0 0.00 0.00 0.00 44 1015.4
20260501161437 63 217 2.0 5.0 0.00 0.00 0.00 45 1015.4